Norfolk, NE

10:08 PM CST on December 06, 2019 (GMT -0600)
Stefan Memorial

Weather History for KOFK - November, 2019

Change the Weather History Date:

Sunday, November 17, 2019

  Actual Average Record
Temperature  
Mean Temperature 41 °F 36 °F  
Max Temperature 51 °F 46 °F 72 °F (1941)
Min Temperature 30 °F 25 °F -5 °F (1959)
Degree Days  
Heating Degree Days 24 30  
Month to date heating degree days 526 426  
Since 1 July heating degree days 1150 1011  
Cooling Degree Days 0 0  
Month to date cooling degree days 0 0  
Year to date cooling degree days 949 915  
Moisture  
Dew Point 33 °F    
Average Humidity 66    
Maximum Humidity 82    
Minimum Humidity 50    
Precipitation  
Precipitation 0.00 in 0.05 in 1.00 in (1971)
Month to date precipitation 0.26 0.82  
Year to date precipitation 24.22 26.11  
Snow  
Snow 0.00 in 0.20 in - ()
Month to date snowfall 2.8 1.8  
Since 1 July snowfall 2.8 2.6  
Since 1 September snowfall 2.8 2.6  
Snow Depth 0.00 in    
Sea Level Pressure  
Sea Level Pressure 29.98 in    
Wind  
Wind Speed 9 mph (NW)    
Max Wind Speed 22 mph    
Max Gust Speed 30 mph    
Visibility 10 miles    
Events      
T = Trace of Precipitation, MM = Missing Value Source: NWS Daily Summary

Daily Weather History Graph

Daily Weather History Graph

Search for Another Location

Airport or City:

Astronomy

Nov. 17, 2019 Rise Set
Actual Time 7:21 AM CST 5:07 PM CST
Civil Twilight 6:51 AM CST 5:37 PM CST
Nautical Twilight 6:17 AM CST 6:11 PM CST
Astronomical Twilight 5:44 AM CST 6:44 PM CST
Moon 9:43 PM CST (11/17) 12:09 PM CST (11/17)
Length of Visible Light 10h 45m
Length of Day
9h 45m
Waning Gibbous, 73% of the Moon is Illuminated
Nov 17
Waning Gibbous
Nov 19
Last Quarter
Nov 26
New
Dec 4
First Quarter
Dec 11
Full

Hourly Weather History & Observations

Time (CST) Temp. Windchill Dew Point Humidity Pressure Visibility Wind Dir Wind Speed Gust Speed Precip Events Conditions
12:26 AM 46.9 °F - 39.0 °F 74% 30.02 in 10.0 mi NW 18.4 mph - N/A   Overcast
12:56 AM 46.0 °F 39.9 °F 39.0 °F 76% 30.03 in 10.0 mi NW 13.8 mph - N/A   Overcast
1:11 AM 46.0 °F 38.5 °F 37.9 °F 73% 30.01 in 10.0 mi NW 19.6 mph 26.5 mph N/A   Overcast
1:56 AM 45.0 °F 38.9 °F 36.0 °F 71% 30.02 in 10.0 mi NNW 12.7 mph - N/A   Overcast
2:56 AM 43.0 °F 36.0 °F 36.0 °F 76% 30.04 in 10.0 mi NW 13.8 mph - N/A   Mostly Cloudy
3:56 AM 43.0 °F 36.4 °F 35.1 °F 74% 30.02 in 10.0 mi NW 12.7 mph - N/A   Overcast
4:56 AM 43.0 °F 36.8 °F 35.1 °F 74% 30.03 in 10.0 mi WNW 11.5 mph - N/A   Overcast
5:56 AM 41.0 °F 34.7 °F 34.0 °F 76% 30.02 in 10.0 mi WNW 10.4 mph - N/A   Clear
6:56 AM 39.0 °F 33.4 °F 34.0 °F 82% 30.03 in 10.0 mi West 8.1 mph - N/A   Overcast
7:56 AM 39.9 °F 35.8 °F 34.0 °F 79% 30.04 in 10.0 mi WNW 5.8 mph - N/A   Overcast
8:56 AM 39.9 °F 32.1 °F 32.0 °F 73% 30.06 in 10.0 mi WNW 13.8 mph - N/A   Scattered Clouds
9:56 AM 44.1 °F 37.7 °F 33.1 °F 65% 30.05 in 10.0 mi NW 12.7 mph 21.9 mph N/A   Clear
10:56 AM 46.0 °F 41.0 °F 34.0 °F 63% 30.04 in 10.0 mi NW 10.4 mph - N/A   Clear
11:49 AM 46.9 °F - 34.0 °F 61% 30.01 in 10.0 mi NW 12.7 mph - N/A   Mostly Cloudy
11:56 AM 46.9 °F - 34.0 °F 61% 30.03 in 10.0 mi NNW 15.0 mph 25.3 mph N/A   Mostly Cloudy
12:56 PM 48.9 °F - 34.0 °F 56% 30.01 in 10.0 mi NNW 12.7 mph 21.9 mph N/A   Scattered Clouds
1:56 PM 50.0 °F - 34.0 °F 54% 29.98 in 10.0 mi NNW 13.8 mph - N/A   Clear
2:56 PM 51.1 °F - 33.1 °F 50% 29.97 in 10.0 mi NNW 9.2 mph - N/A   Clear
3:56 PM 50.0 °F - 33.1 °F 52% 29.96 in 10.0 mi NNW 10.4 mph - N/A   Clear
4:56 PM 45.0 °F 42.6 °F 32.0 °F 60% 29.96 in 10.0 mi NNW 4.6 mph - N/A   Clear
5:56 PM 35.1 °F - 27.0 °F 72% 29.95 in 10.0 mi Calm Calm - N/A   Clear
6:56 PM 33.1 °F - 28.0 °F 82% 29.96 in 10.0 mi Calm Calm - N/A   Clear
7:56 PM 35.1 °F - 28.9 °F 78% 29.93 in 10.0 mi Calm Calm - N/A   Clear
8:56 PM 36.0 °F - 30.0 °F 79% 29.91 in 10.0 mi Calm Calm - N/A   Clear
9:56 PM 36.0 °F 33.3 °F 30.0 °F 79% 29.89 in 10.0 mi ESE 3.5 mph - N/A   Clear
10:56 PM 36.0 °F 31.1 °F 28.9 °F 76% 29.87 in 10.0 mi SSE 5.8 mph - N/A   Clear
11:56 PM 30.0 °F 25.2 °F 26.1 °F 85% 29.85 in 9.0 mi ESE 4.6 mph - N/A   Clear